TimeCDT,TemperatureF,Dew PointF,Humidity,Sea Level PressureIn,VisibilityMPH,Wind Direction,Wind SpeedMPH,Gust SpeedMPH,PrecipitationIn,Events,Conditions,WindDirDegrees,DateUTC
12:56 AM,45.0,42.1,90,30.29,-9999.0,SSW,3.5,-,N/A,,Unknown,200,2013-05-24 05:56:00
1:56 AM,42.1,39.0,89,30.28,-9999.0,SE,5.8,-,N/A,,Unknown,140,2013-05-24 06:56:00
2:56 AM,39.9,37.0,89,30.28,-9999.0,SSE,4.6,-,N/A,,Unknown,150,2013-05-24 07:56:00
3:56 AM,39.0,37.0,93,30.27,-9999.0,SSE,4.6,-,N/A,,Unknown,150,2013-05-24 08:56:00
4:56 AM,41.0,37.0,86,30.26,-9999.0,SSE,8.1,-,N/A,,Unknown,150,2013-05-24 09:56:00
5:56 AM,42.1,37.9,85,30.25,-9999.0,SSE,8.1,-,N/A,,Unknown,160,2013-05-24 10:56:00
6:56 AM,45.0,39.9,82,30.26,-9999.0,South,12.7,-,N/A,,Unknown,170,2013-05-24 11:56:00
7:56 AM,46.0,39.9,79,30.26,-9999.0,South,9.2,-,N/A,,Unknown,180,2013-05-24 12:56:00
8:56 AM,52.0,39.0,61,30.25,-9999.0,South,20.7,-,N/A,,Unknown,180,2013-05-24 13:56:00
9:56 AM,55.9,39.9,55,30.23,-9999.0,South,18.4,25.3,N/A,,Unknown,170,2013-05-24 14:56:00
10:56 AM,57.9,43.0,58,30.21,-9999.0,SSE,20.7,26.5,N/A,,Unknown,160,2013-05-24 15:56:00
11:56 AM,59.0,42.1,53,30.19,-9999.0,SSE,23.0,27.6,N/A,,Unknown,160,2013-05-24 16:56:00
12:56 PM,61.0,43.0,52,30.16,-9999.0,SSE,18.4,-,N/A,,Unknown,150,2013-05-24 17:56:00
1:56 PM,61.0,44.1,54,30.17,-9999.0,SSE,17.3,-,N/A,,Unknown,150,2013-05-24 18:56:00
2:56 PM,57.0,50.0,77,30.18,-9999.0,South,12.7,-,0.07,,Unknown,170,2013-05-24 19:56:00
3:56 PM,55.9,53.1,90,30.16,-9999.0,SE,12.7,-,0.12,,Unknown,140,2013-05-24 20:56:00
4:56 PM,57.0,51.1,81,30.14,-9999.0,SSE,10.4,-,0.01,,Unknown,160,2013-05-24 21:56:00
5:56 PM,57.0,50.0,77,30.12,-9999.0,SSE,12.7,-,N/A,,Unknown,150,2013-05-24 22:56:00
6:56 PM,55.0,52.0,89,30.11,-9999.0,SSE,11.5,-,0.01,,Unknown,150,2013-05-24 23:56:00
7:56 PM,55.0,52.0,89,30.10,-9999.0,South,8.1,-,N/A,,Unknown,170,2013-05-25 00:56:00
8:56 PM,55.9,51.1,84,30.08,-9999.0,SSE,10.4,-,N/A,,Unknown,160,2013-05-25 01:56:00
9:56 PM,55.0,52.0,89,30.09,-9999.0,SSE,5.8,-,N/A,,Unknown,150,2013-05-25 02:56:00
10:56 PM,55.0,51.1,86,30.09,-9999.0,SSE,10.4,-,N/A,,Unknown,160,2013-05-25 03:56:00
11:56 PM,55.0,52.0,89,30.08,-9999.0,SSE,15.0,-,N/A,,Unknown,160,2013-05-25 04:56:00